User: anonymous   Login
Location: D�derode
(51.8092°N, 10.1065°E)
Time: 23:09:37
(UTC+00:00)
Language:

FENGYUN 1C DEB - Orbit

View from above orbital plane
View from above orbital plane
View from above satellite
View from above satellite

Ground track
Ground track

The orbit data is extracted from the following two-line orbital elements,

1 35174U 99025DNE 21175.30816813  .00000887  00000-0  16410-3 0  9999
2 35174  99.0632   4.7502 0361125  83.1071 281.1047 14.33700221664425
Epoch (UTC): 24 June 2021 07:23:45
Eccentricity: 0.0361125
inclination: 99.0632°
perigee height: 521 km
apogee height: 1038 km
right ascension of ascending node: 4.7502°
argument of perigee: 83.1071°
revolutions per day: 14.33700221
mean anomaly at epoch: 281.1047°
orbit number at epoch: 66442

The dashed part of the orbit path shows where the satellite is in the earth's shadow,  

DLR